| time (UTC) | temp F | wind direction | speed MPH | gust MPH | rain 1hr in | rain 24hr in | rain mn in | humidity % | barometer mb |
| 20260905210859 | 71 | 28 | 8.0 | 12.0 | 0.00 | 0.01 | 0.01 | 74 | 1011.8 |
| 20260905210849 | 71 | 20 | 8.0 | 14.0 | 0.00 | 0.01 | 0.01 | 75 | 1011.7 |
| 20260905210115 | 70 | 24 | 9.0 | 16.0 | 0.00 | 0.01 | 0.01 | 75 | 1011.6 |
| 20260905205359 | 70 | 30 | 10.0 | 18.0 | 0.00 | 0.01 | 0.01 | 74 | 1011.5 |
| 20260905204859 | 71 | 5 | 11.0 | 18.0 | 0.00 | 0.01 | 0.01 | 74 | 1011.5 |
| 20260905204359 | 71 | 31 | 10.0 | 16.0 | 0.00 | 0.01 | 0.01 | 72 | 1011.5 |
| 20260905203858 | 71 | 24 | 9.0 | 18.0 | 0.00 | 0.01 | 0.01 | 72 | 1011.5 |
| 20260905203358 | 71 | 9 | 9.0 | 16.0 | 0.00 | 0.01 | 0.01 | 72 | 1011.5 |
| 20260905202854 | 71 | 348 | 8.0 | 14.0 | 0.00 | 0.01 | 0.01 | 72 | 1011.4 |
| 20260905202354 | 72 | 36 | 8.0 | 17.0 | 0.00 | 0.01 | 0.01 | 72 | 1011.4 |
| 20260905202112 | 72 | 24 | 9.0 | 17.0 | 0.00 | 0.01 | 0.01 | 71 | 1011.4 |
| 20260905201354 | 72 | 24 | 10.0 | 18.0 | 0.00 | 0.01 | 0.01 | 71 | 1011.4 |
| 20260905201344 | 72 | 38 | 8.0 | 18.0 | 0.00 | 0.01 | 0.01 | 70 | 1011.4 |
| 20260905200355 | 73 | 227 | 8.0 | 15.0 | 0.00 | 0.01 | 0.01 | 69 | 1011.3 |
| 20260905200115 | 74 | 19 | 9.0 | 16.0 | 0.00 | 0.01 | 0.01 | 67 | 1011.3 |
| 20260905195355 | 75 | 24 | 9.0 | 16.0 | 0.00 | 0.01 | 0.01 | 66 | 1011.4 |
| 20260905194855 | 75 | 25 | 9.0 | 19.0 | 0.00 | 0.01 | 0.01 | 67 | 1011.3 |
| 20260905194350 | 75 | 9 | 9.0 | 19.0 | 0.00 | 0.01 | 0.01 | 66 | 1011.3 |
| 20260905193851 | 75 | 48 | 9.0 | 17.0 | 0.00 | 0.01 | 0.01 | 68 | 1011.3 |
| 20260905193351 | 74 | 40 | 10.0 | 19.0 | 0.00 | 0.01 | 0.01 | 66 | 1011.4 |
| 20260905192850 | 75 | 19 | 10.0 | 19.0 | 0.00 | 0.01 | 0.01 | 66 | 1011.4 |
| 20260905192350 | 75 | 41 | 11.0 | 21.0 | 0.00 | 0.01 | 0.01 | 67 | 1011.3 |
| 20260905191850 | 75 | 43 | 10.0 | 21.0 | 0.00 | 0.01 | 0.01 | 66 | 1011.3 |
| 20260905191619 | 74 | 34 | 11.0 | 19.0 | 0.00 | 0.01 | 0.01 | 70 | 1011.3 |
| 20260905190850 | 74 | 36 | 11.0 | 19.0 | 0.00 | 0.01 | 0.01 | 67 | 1011.4 |
| 20260905190350 | 75 | 9 | 9.0 | 16.0 | 0.00 | 0.01 | 0.01 | 68 | 1011.3 |
| 20260905185846 | 74 | 351 | 9.0 | 16.0 | 0.00 | 0.01 | 0.01 | 69 | 1011.3 |
| 20260905185346 | 73 | 34 | 8.0 | 16.0 | 0.00 | 0.01 | 0.01 | 71 | 1011.4 |
| 20260905185112 | 71 | 57 | 8.0 | 15.0 | 0.00 | 0.01 | 0.01 | 74 | 1011.4 |
| 20260905184347 | 71 | 42 | 10.0 | 17.0 | 0.00 | 0.01 | 0.01 | 73 | 1011.5 |
| 20260905183847 | 72 | 22 | 11.0 | 19.0 | 0.00 | 0.01 | 0.01 | 71 | 1011.4 |
| 20260905183347 | 73 | 11 | 11.0 | 19.0 | 0.00 | 0.01 | 0.01 | 72 | 1011.4 |
| 20260905182847 | 74 | 40 | 11.0 | 19.0 | 0.00 | 0.01 | 0.01 | 72 | 1011.3 |
| 20260905182609 | 73 | 24 | 11.0 | 19.0 | 0.00 | 0.01 | 0.01 | 70 | 1011.2 |
| 20260905181846 | 74 | 46 | 10.0 | 17.0 | 0.00 | 0.01 | 0.01 | 73 | 1011.3 |
| 20260905181603 | 72 | 46 | 10.0 | 16.0 | 0.00 | 0.01 | 0.01 | 74 | 1011.3 |
| 20260905180842 | 73 | 19 | 10.0 | 18.0 | 0.00 | 0.01 | 0.01 | 72 | 1011.3 |
| 20260905180607 | 74 | 17 | 9.0 | 18.0 | 0.00 | 0.01 | 0.01 | 71 | 1011.2 |
| 20260905180108 | 74 | 19 | 8.0 | 14.0 | 0.00 | 0.01 | 0.01 | 73 | 1011.3 |
| 20260905175342 | 73 | 42 | 8.0 | 14.0 | 0.00 | 0.01 | 0.01 | 75 | 1011.3 |
| 20260905174842 | 73 | 9 | 8.0 | 14.0 | 0.00 | 0.01 | 0.01 | 75 | 1011.3 |
| 20260905174343 | 73 | 23 | 9.0 | 15.0 | 0.00 | 0.01 | 0.01 | 72 | 1011.4 |
| 20260905173843 | 75 | 344 | 9.0 | 15.0 | 0.00 | 0.01 | 0.01 | 73 | 1011.4 |
| 20260905173605 | 74 | 122 | 8.0 | 17.0 | 0.00 | 0.01 | 0.01 | 75 | 1011.4 |
| 20260905172839 | 73 | 24 | 8.0 | 17.0 | 0.00 | 0.01 | 0.01 | 75 | 1011.4 |
| 20260905172338 | 72 | 11 | 8.0 | 15.0 | 0.00 | 0.01 | 0.01 | 76 | 1011.3 |
| 20260905171838 | 72 | 9 | 8.0 | 13.0 | 0.00 | 0.01 | 0.01 | 75 | 1011.3 |
| 20260905171338 | 73 | 351 | 8.0 | 17.0 | 0.00 | 0.01 | 0.01 | 76 | 1011.4 |
| 20260905170838 | 72 | 11 | 9.0 | 17.0 | 0.00 | 0.01 | 0.01 | 77 | 1011.4 |
| 20260905170339 | 71 | 44 | 8.0 | 14.0 | 0.00 | 0.01 | 0.01 | 77 | 1011.4 |
| 20260905165838 | 71 | 355 | 8.0 | 15.0 | 0.00 | 0.01 | 0.01 | 77 | 1011.4 |
| 20260905165339 | 71 | 40 | 9.0 | 19.0 | 0.00 | 0.01 | 0.01 | 77 | 1011.5 |
| 20260905164839 | 71 | 26 | 9.0 | 19.0 | 0.00 | 0.01 | 0.01 | 78 | 1011.5 |
| 20260905164337 | 71 | 19 | 8.0 | 17.0 | 0.00 | 0.01 | 0.01 | 79 | 1011.5 |
| 20260905163837 | 71 | 32 | 7.0 | 16.0 | 0.00 | 0.01 | 0.01 | 78 | 1011.5 |
| 20260905163558 | 70 | 53 | 7.0 | 14.0 | 0.00 | 0.01 | 0.01 | 80 | 1011.5 |
| 20260905162837 | 70 | 28 | 7.0 | 14.0 | 0.00 | 0.01 | 0.01 | 79 | 1011.6 |
| 20260905162336 | 71 | 30 | 8.0 | 14.0 | 0.00 | 0.01 | 0.01 | 78 | 1011.7 |
| 20260905161838 | 72 | 39 | 8.0 | 14.0 | 0.00 | 0.01 | 0.01 | 78 | 1011.7 |
| 20260905161338 | 72 | 324 | 8.0 | 14.0 | 0.00 | 0.01 | 0.01 | 77 | 1011.7 |
| 20260905160838 | 72 | 25 | 8.0 | 15.0 | 0.00 | 0.01 | 0.01 | 79 | 1011.7 |
| 20260905160557 | 71 | 32 | 7.0 | 15.0 | 0.00 | 0.01 | 0.01 | 80 | 1011.8 |
| 20260905155837 | 70 | 37 | 7.0 | 14.0 | 0.00 | 0.01 | 0.01 | 81 | 1011.8 |
| 20260905155336 | 69 | 302 | 8.0 | 16.0 | 0.00 | 0.01 | 0.01 | 82 | 1011.8 |
| 20260905154836 | 68 | 23 | 9.0 | 16.0 | 0.00 | 0.01 | 0.01 | 82 | 1011.9 |
| 20260905154558 | 68 | 36 | 7.0 | 16.0 | 0.00 | 0.01 | 0.01 | 83 | 1012.0 |
| 20260905153837 | 68 | 5 | 6.0 | 14.0 | 0.00 | 0.01 | 0.01 | 83 | 1012.0 |
| 20260905153337 | 68 | 30 | 7.0 | 12.0 | 0.00 | 0.01 | 0.01 | 85 | 1012.0 |
| 20260905153107 | 67 | 349 | 7.0 | 15.0 | 0.00 | 0.01 | 0.01 | 85 | 1012.0 |
| 20260905152337 | 67 | 42 | 7.0 | 15.0 | 0.00 | 0.01 | 0.01 | 86 | 1012.1 |
| 20260905151837 | 66 | 27 | 6.0 | 13.0 | 0.00 | 0.01 | 0.01 | 87 | 1012.1 |
| 20260905151335 | 66 | 30 | 6.0 | 11.0 | 0.00 | 0.01 | 0.01 | 88 | 1012.2 |
| 20260905151035 | 66 | 34 | 6.0 | 12.0 | 0.00 | 0.01 | 0.01 | 88 | 1012.1 |
| 20260905150918 | 66 | 17 | 6.0 | 12.0 | 0.00 | 0.01 | 0.01 | 88 | 1012.2 |
| 20260905150104 | 66 | 11 | 5.0 | 13.0 | 0.00 | 0.01 | 0.01 | 89 | 1012.1 |
| 20260905145334 | 65 | 17 | 6.0 | 13.0 | 0.00 | 0.01 | 0.01 | 89 | 1012.0 |
| 20260905144834 | 65 | 11 | 7.0 | 13.0 | 0.00 | 0.01 | 0.01 | 89 | 1011.8 |
| 20260905144334 | 66 | 22 | 7.0 | 13.0 | 0.00 | 0.01 | 0.01 | 90 | 1011.8 |
| 20260905143834 | 66 | 20 | 5.0 | 12.0 | 0.00 | 0.01 | 0.01 | 90 | 1011.9 |
| 20260905143334 | 67 | 300 | 4.0 | 11.0 | 0.00 | 0.01 | 0.01 | 92 | 1011.8 |
| 20260905142834 | 66 | 25 | 4.0 | 11.0 | 0.00 | 0.01 | 0.01 | 92 | 1011.8 |
| 20260905142335 | 65 | 198 | 4.0 | 8.0 | 0.00 | 0.01 | 0.01 | 92 | 1011.8 |
| 20260905141839 | 65 | 37 | 3.0 | 6.0 | 0.00 | 0.01 | 0.01 | 93 | 1011.9 |
| 20260905141816 | 65 | 10 | 3.0 | 5.0 | 0.01 | 0.01 | 0.01 | 93 | 1011.9 |
| 20260905140836 | 64 | 5 | 3.0 | 5.0 | 0.01 | 0.01 | 0.01 | 93 | 1012.1 |
| 20260905140336 | 64 | 22 | 3.0 | 7.0 | 0.01 | 0.01 | 0.01 | 93 | 1012.0 |
| 20260905135831 | 64 | 45 | 2.0 | 7.0 | 0.01 | 0.01 | 0.01 | 93 | 1012.0 |
| 20260905135324 | 63 | 305 | 1.0 | 3.0 | 0.01 | 0.01 | 0.01 | 93 | 1012.0 |
| 20260905134824 | 63 | 20 | 0.0 | 0.0 | 0.01 | 0.01 | 0.01 | 93 | 1012.0 |
| 20260905134325 | 63 | 169 | 0.0 | 0.0 | 0.01 | 0.01 | 0.01 | 93 | 1012.0 |
| 20260905133823 | 63 | 9 | 0.0 | 0.0 | 0.01 | 0.01 | 0.01 | 93 | 1011.9 |
| 20260905133321 | 62 | 9 | 0.0 | 0.0 | 0.01 | 0.01 | 0.01 | 93 | 1011.9 |
| 20260905132821 | 62 | 17 | 0.0 | 0.0 | 0.01 | 0.01 | 0.01 | 93 | 1011.8 |
| 20260905132321 | 62 | 23 | 0.0 | 0.0 | 0.01 | 0.01 | 0.01 | 93 | 1011.9 |
| 20260905132040 | 62 | 24 | 0.0 | 0.0 | 0.01 | 0.01 | 0.01 | 93 | 1011.8 |
| 20260905131317 | 62 | 24 | 0.0 | 2.0 | 0.00 | 0.00 | 0.00 | 93 | 1011.8 |
| 20260905130815 | 62 | 22 | 0.0 | 2.0 | 0.00 | 0.00 | 0.00 | 94 | 1011.7 |
| 20260905130315 | 62 | 32 | 0.0 | 2.0 | 0.00 | 0.00 | 0.00 | 94 | 1011.6 |
| 20260905130037 | 62 | 351 | 0.0 | 2.0 | 0.00 | 0.00 | 0.00 | 94 | 1011.7 |
| 20260905125313 | 62 | 350 | 0.0 | 1.0 | 0.00 | 0.00 | 0.00 | 94 | 1011.7 |
| 20260905124813 | 61 | 349 | 0.0 | 1.0 | 0.00 | 0.00 | 0.00 | 94 | 1011.6 |
| 20260905124313 | 61 | 351 | 0.0 | 1.0 | 0.00 | 0.00 | 0.00 | 94 | 1011.6 |
| 20260905123811 | 61 | 351 | 0.0 | 1.0 | 0.00 | 0.00 | 0.00 | 94 | 1011.6 |
| 20260905123526 | 61 | 351 | 0.0 | 2.0 | 0.00 | 0.00 | 0.00 | 94 | 1011.5 |
| 20260905123033 | 61 | 351 | 0.0 | 2.0 | 0.00 | 0.00 | 0.00 | 94 | 1011.4 |
| 20260905122307 | 61 | 340 | 0.0 | 1.0 | 0.00 | 0.00 | 0.00 | 94 | 1011.4 |
| 20260905121800 | 61 | 340 | 0.0 | 0.0 | 0.00 | 0.00 | 0.00 | 94 | 1011.4 |
| 20260905121254 | 60 | 340 | 0.0 | 0.0 | 0.00 | 0.00 | 0.00 | 94 | 1011.3 |
| 20260905120749 | 60 | 342 | 0.0 | 0.0 | 0.00 | 0.00 | 0.00 | 94 | 1011.3 |
| 20260905120506 | 60 | 341 | 0.0 | 0.0 | 0.00 | 0.00 | 0.00 | 94 | 1011.3 |
| 20260905115737 | 60 | 341 | 0.0 | 0.0 | 0.00 | 0.00 | 0.00 | 94 | 1011.3 |
| 20260905115230 | 59 | 341 | 0.0 | 0.0 | 0.00 | 0.00 | 0.00 | 94 | 1011.2 |
| 20260905114725 | 59 | 342 | 0.0 | 0.0 | 0.00 | 0.00 | 0.00 | 94 | 1011.2 |
| 20260905114219 | 58 | 342 | 0.0 | 0.0 | 0.00 | 0.00 | 0.00 | 94 | 1011.1 |
| 20260905113712 | 58 | 342 | 0.0 | 0.0 | 0.00 | 0.00 | 0.00 | 94 | 1011.1 |
| 20260905113206 | 58 | 341 | 0.0 | 0.0 | 0.00 | 0.00 | 0.00 | 93 | 1011.1 |
| 20260905112701 | 58 | 26 | 0.0 | 0.0 | 0.00 | 0.00 | 0.00 | 93 | 1011.0 |
| 20260905112155 | 57 | 26 | 0.0 | 0.0 | 0.00 | 0.00 | 0.00 | 93 | 1011.0 |
| 20260905111648 | 57 | 26 | 0.0 | 0.0 | 0.00 | 0.00 | 0.00 | 93 | 1011.0 |
| 20260905111143 | 57 | 26 | 0.0 | 0.0 | 0.00 | 0.00 | 0.00 | 93 | 1010.9 |
| 20260905110636 | 57 | 26 | 0.0 | 0.0 | 0.00 | 0.00 | 0.00 | 93 | 1010.9 |
| 20260905110130 | 57 | 26 | 0.0 | 0.0 | 0.00 | 0.00 | 0.00 | 93 | 1010.8 |
| 20260905105625 | 57 | 26 | 0.0 | 0.0 | 0.00 | 0.00 | 0.00 | 93 | 1010.6 |
| 20260905105341 | 57 | 26 | 0.0 | 0.0 | 0.00 | 0.00 | 0.00 | 93 | 1010.6 |
| 20260905104612 | 57 | 26 | 0.0 | 0.0 | 0.00 | 0.00 | 0.00 | 93 | 1010.5 |
| 20260905104106 | 57 | 26 | 0.0 | 0.0 | 0.00 | 0.00 | 0.00 | 93 | 1010.5 |
| 20260905103601 | 57 | 26 | 0.0 | 0.0 | 0.00 | 0.00 | 0.00 | 93 | 1010.5 |
| 20260905103054 | 57 | 26 | 0.0 | 0.0 | 0.00 | 0.00 | 0.00 | 93 | 1010.4 |
| 20260905102553 | 57 | 26 | 0.0 | 0.0 | 0.00 | 0.00 | 0.00 | 93 | 1010.5 |
| 20260905102053 | 57 | 26 | 0.0 | 0.0 | 0.00 | 0.00 | 0.00 | 93 | 1010.5 |
| 20260905101551 | 57 | 26 | 0.0 | 0.0 | 0.00 | 0.00 | 0.00 | 93 | 1010.4 |
| 20260905101049 | 57 | 26 | 0.0 | 0.0 | 0.00 | 0.00 | 0.00 | 93 | 1010.5 |
| 20260905100549 | 57 | 26 | 0.0 | 0.0 | 0.00 | 0.00 | 0.00 | 93 | 1010.5 |
| 20260905100049 | 57 | 26 | 0.0 | 0.0 | 0.00 | 0.00 | 0.00 | 93 | 1010.4 |
| 20260905095549 | 57 | 26 | 0.0 | 0.0 | 0.00 | 0.00 | 0.00 | 93 | 1010.4 |
| 20260905095053 | 57 | 26 | 0.0 | 0.0 | 0.00 | 0.00 | 0.00 | 93 | 1010.4 |
| 20260905094547 | 57 | 26 | 0.0 | 0.0 | 0.00 | 0.00 | 0.00 | 93 | 1010.4 |
| 20260905094045 | 57 | 26 | 0.0 | 0.0 | 0.00 | 0.00 | 0.00 | 93 | 1010.3 |
| 20260905093543 | 57 | 26 | 0.0 | 0.0 | 0.00 | 0.00 | 0.00 | 93 | 1010.3 |
| 20260905093041 | 57 | 26 | 0.0 | 1.0 | 0.00 | 0.00 | 0.00 | 93 | 1010.3 |
| 20260905092541 | 57 | 26 | 0.0 | 2.0 | 0.00 | 0.00 | 0.00 | 93 | 1010.3 |
| 20260905092039 | 57 | 26 | 1.0 | 3.0 | 0.00 | 0.00 | 0.00 | 93 | 1010.3 |
| 20260905092021 | 56 | 26 | 1.0 | 3.0 | 0.00 | 0.00 | 0.00 | 92 | 1010.2 |
| 20260905091032 | 56 | 17 | 0.0 | 0.0 | 0.00 | 0.00 | 0.00 | 93 | 1010.0 |
| 20260905090527 | 56 | 17 | 0.0 | 0.0 | 0.00 | 0.00 | 0.00 | 93 | 1010.0 |
| 20260905090021 | 56 | 17 | 0.0 | 0.0 | 0.00 | 0.00 | 0.00 | 93 | 1010.0 |
| 20260905085515 | 56 | 17 | 0.0 | 0.0 | 0.00 | 0.00 | 0.00 | 92 | 1010.0 |
| 20260905085232 | 56 | 17 | 0.0 | 0.0 | 0.00 | 0.00 | 0.00 | 92 | 1010.0 |
| 20260905084502 | 56 | 17 | 0.0 | 0.0 | 0.00 | 0.00 | 0.00 | 92 | 1010.0 |
| 20260905083957 | 56 | 17 | 0.0 | 0.0 | 0.00 | 0.00 | 0.00 | 92 | 1010.0 |
| 20260905083450 | 56 | 17 | 0.0 | 1.0 | 0.00 | 0.00 | 0.00 | 92 | 1010.0 |
| 20260905082944 | 56 | 17 | 0.0 | 2.0 | 0.00 | 0.00 | 0.00 | 92 | 1010.0 |
| 20260905082439 | 56 | 17 | 0.0 | 2.0 | 0.00 | 0.00 | 0.00 | 92 | 1010.0 |
| 20260905081933 | 56 | 17 | 0.0 | 1.0 | 0.00 | 0.00 | 0.00 | 92 | 1009.9 |
| 20260905081426 | 56 | 17 | 1.0 | 2.0 | 0.00 | 0.00 | 0.00 | 92 | 1009.9 |
| 20260905080921 | 57 | 17 | 1.0 | 2.0 | 0.00 | 0.00 | 0.00 | 91 | 1010.0 |
| 20260905080414 | 58 | 17 | 0.0 | 1.0 | 0.00 | 0.00 | 0.00 | 91 | 1010.0 |
| 20260905075908 | 58 | 16 | 0.0 | 0.0 | 0.00 | 0.00 | 0.00 | 92 | 1010.0 |
| 20260905075403 | 58 | 16 | 0.0 | 0.0 | 0.00 | 0.00 | 0.00 | 92 | 1010.0 |
| 20260905075119 | 58 | 16 | 0.0 | 0.0 | 0.00 | 0.00 | 0.00 | 92 | 1010.0 |
| 20260905074351 | 58 | 16 | 0.0 | 0.0 | 0.00 | 0.00 | 0.00 | 92 | 1009.9 |
| 20260905073845 | 58 | 16 | 0.0 | 0.0 | 0.00 | 0.00 | 0.00 | 92 | 1009.9 |
| 20260905073557 | 58 | 16 | 0.0 | 0.0 | 0.00 | 0.00 | 0.00 | 92 | 1009.9 |
| 20260905072832 | 59 | 16 | 0.0 | 0.0 | 0.00 | 0.00 | 0.00 | 91 | 1009.9 |
| 20260905072326 | 59 | 16 | 0.0 | 0.0 | 0.00 | 0.00 | 0.00 | 92 | 1009.9 |
| 20260905071820 | 59 | 16 | 0.0 | 0.0 | 0.00 | 0.00 | 0.00 | 92 | 1009.9 |
| 20260905071315 | 59 | 16 | 0.0 | 0.0 | 0.00 | 0.00 | 0.00 | 92 | 1010.0 |
| 20260905070809 | 59 | 16 | 0.0 | 0.0 | 0.00 | 0.00 | 0.00 | 92 | 1010.2 |
| 20260905070302 | 58 | 16 | 0.0 | 0.0 | 0.00 | 0.00 | 0.00 | 91 | 1010.2 |
| 20260905065757 | 58 | 16 | 0.0 | 0.0 | 0.00 | 0.00 | 0.00 | 92 | 1010.2 |
| 20260905065514 | 58 | 27 | 0.0 | 0.0 | 0.00 | 0.00 | 0.00 | 91 | 1010.3 |
| 20260905064745 | 59 | 27 | 0.0 | 0.0 | 0.00 | 0.00 | 0.00 | 91 | 1010.3 |
| 20260905064238 | 58 | 27 | 0.0 | 0.0 | 0.00 | 0.00 | 0.00 | 91 | 1010.4 |
| 20260905063733 | 58 | 27 | 0.0 | 0.0 | 0.00 | 0.00 | 0.00 | 91 | 1010.4 |
| 20260905063454 | 58 | 27 | 0.0 | 0.0 | 0.00 | 0.00 | 0.00 | 91 | 1010.4 |
| 20260905062945 | 59 | 27 | 0.0 | 0.0 | 0.00 | 0.00 | 0.00 | 91 | 1010.3 |
| 20260905062215 | 59 | 27 | 0.0 | 0.0 | 0.00 | 0.00 | 0.00 | 91 | 1010.3 |
| 20260905061708 | 59 | 27 | 0.0 | 1.0 | 0.00 | 0.00 | 0.00 | 91 | 1010.3 |
| 20260905061205 | 59 | 27 | 0.0 | 1.0 | 0.00 | 0.00 | 0.00 | 91 | 1010.4 |
| 20260905060917 | 59 | 27 | 1.0 | 2.0 | 0.00 | 0.00 | 0.00 | 91 | 1010.3 |
| 20260905060151 | 59 | 28 | 1.0 | 2.0 | 0.00 | 0.00 | 0.00 | 90 | 1010.3 |
| 20260905055645 | 60 | 28 | 1.0 | 2.0 | 0.00 | 0.00 | 0.00 | 90 | 1010.3 |
| 20260905055139 | 60 | 28 | 0.0 | 1.0 | 0.00 | 0.00 | 0.00 | 90 | 1010.4 |
| 20260905054633 | 60 | 28 | 0.0 | 0.0 | 0.00 | 0.00 | 0.00 | 90 | 1010.4 |
| 20260905054127 | 61 | 28 | 0.0 | 0.0 | 0.00 | 0.00 | 0.00 | 90 | 1010.4 |
| 20260905053627 | 61 | 28 | 0.0 | 0.0 | 0.00 | 0.00 | 0.00 | 90 | 1010.3 |
| 20260905053125 | 61 | 28 | 0.0 | 0.0 | 0.00 | 0.00 | 0.00 | 89 | 1010.3 |
| 20260905052622 | 61 | 27 | 0.0 | 0.0 | 0.00 | 0.00 | 0.00 | 89 | 1010.3 |
| 20260905052120 | 61 | 27 | 0.0 | 0.0 | 0.00 | 0.00 | 0.00 | 89 | 1010.3 |
| 20260905051620 | 61 | 27 | 0.0 | 0.0 | 0.00 | 0.00 | 0.00 | 89 | 1010.3 |
| 20260905051119 | 61 | 27 | 0.0 | 0.0 | 0.00 | 0.00 | 0.00 | 89 | 1010.3 |
| 20260905050616 | 61 | 27 | 0.0 | 0.0 | 0.00 | 0.00 | 0.00 | 89 | 1010.3 |
| 20260905050116 | 61 | 27 | 0.0 | 0.0 | 0.00 | 0.00 | 0.00 | 89 | 1010.3 |
| 20260905045616 | 61 | 27 | 0.0 | 0.0 | 0.00 | 0.00 | 0.00 | 89 | 1010.3 |
| 20260905045114 | 61 | 27 | 0.0 | 2.0 | 0.00 | 0.00 | 0.00 | 89 | 1010.4 |
| 20260905044613 | 61 | 27 | 1.0 | 3.0 | 0.00 | 0.00 | 0.00 | 89 | 1010.4 |
| 20260905044111 | 61 | 26 | 1.0 | 3.0 | 0.00 | 0.00 | 0.00 | 88 | 1010.4 |
| 20260905043837 | 62 | 24 | 1.0 | 2.0 | 0.00 | 0.00 | 0.00 | 87 | 1010.4 |
| 20260905043111 | 63 | 24 | 1.0 | 2.0 | 0.00 | 0.00 | 0.00 | 86 | 1010.5 |
| 20260905042831 | 63 | 351 | 0.0 | 0.0 | 0.00 | 0.00 | 0.00 | 86 | 1010.5 |
| 20260905042106 | 64 | 351 | 0.0 | 0.0 | 0.00 | 0.00 | 0.00 | 86 | 1010.5 |
| 20260905041604 | 64 | 351 | 0.0 | 0.0 | 0.00 | 0.00 | 0.00 | 86 | 1010.4 |
| 20260905041103 | 64 | 350 | 0.0 | 0.0 | 0.00 | 0.00 | 0.00 | 86 | 1010.5 |
| 20260905040601 | 64 | 350 | 0.0 | 0.0 | 0.00 | 0.00 | 0.00 | 86 | 1010.5 |
| 20260905040059 | 64 | 350 | 0.0 | 0.0 | 0.00 | 0.00 | 0.00 | 85 | 1010.6 |
| 20260905035602 | 64 | 350 | 0.0 | 0.0 | 0.00 | 0.00 | 0.00 | 85 | 1010.6 |
| 20260905035317 | 64 | 350 | 0.0 | 0.0 | 0.00 | 0.00 | 0.00 | 85 | 1010.6 |
| 20260905034550 | 65 | 350 | 0.0 | 0.0 | 0.00 | 0.00 | 0.00 | 85 | 1010.6 |
| 20260905034046 | 65 | 350 | 0.0 | 0.0 | 0.00 | 0.00 | 0.00 | 85 | 1010.6 |
| 20260905033539 | 65 | 350 | 0.0 | 1.0 | 0.00 | 0.00 | 0.00 | 85 | 1010.7 |
| 20260905033252 | 65 | 350 | 0.0 | 1.0 | 0.00 | 0.00 | 0.00 | 84 | 1010.6 |
| 20260905032527 | 65 | 349 | 0.0 | 1.0 | 0.00 | 0.00 | 0.00 | 84 | 1010.6 |
| 20260905032021 | 65 | 38 | 0.0 | 0.0 | 0.00 | 0.00 | 0.00 | 84 | 1010.6 |
| 20260905031514 | 66 | 38 | 0.0 | 0.0 | 0.00 | 0.00 | 0.00 | 83 | 1010.5 |
| 20260905031009 | 66 | 38 | 0.0 | 0.0 | 0.00 | 0.00 | 0.00 | 83 | 1010.4 |
| 20260905030503 | 66 | 38 | 0.0 | 0.0 | 0.00 | 0.00 | 0.00 | 83 | 1010.3 |
| 20260905030217 | 66 | 38 | 0.0 | 0.0 | 0.00 | 0.00 | 0.00 | 83 | 1010.5 |
| 20260905025450 | 66 | 38 | 0.0 | 0.0 | 0.00 | 0.00 | 0.00 | 83 | 1010.6 |
| 20260905025425 | 66 | 38 | 0.0 | 0.0 | 0.00 | 0.00 | 0.00 | 83 | 1010.6 |
| 20260905024438 | 67 | 38 | 0.0 | 0.0 | 0.00 | 0.00 | 0.00 | 82 | 1010.6 |
| 20260905023933 | 67 | 38 | 0.0 | 0.0 | 0.00 | 0.00 | 0.00 | 82 | 1010.6 |
| 20260905023652 | 67 | 38 | 0.0 | 0.0 | 0.00 | 0.00 | 0.00 | 82 | 1010.7 |
| 20260905022921 | 67 | 38 | 0.0 | 0.0 | 0.00 | 0.00 | 0.00 | 82 | 1010.8 |
| 20260905022414 | 67 | 38 | 0.0 | 0.0 | 0.00 | 0.00 | 0.00 | 82 | 1010.6 |
| 20260905022137 | 67 | 38 | 0.0 | 0.0 | 0.00 | 0.00 | 0.00 | 82 | 1010.6 |
| 20260905021621 | 67 | 37 | 0.0 | 0.0 | 0.00 | 0.00 | 0.00 | 82 | 1010.8 |
| 20260905020857 | 67 | 37 | 0.0 | 0.0 | 0.00 | 0.00 | 0.00 | 82 | 1010.8 |
| 20260905020350 | 67 | 37 | 0.0 | 0.0 | 0.00 | 0.00 | 0.00 | 82 | 1010.8 |
| 20260905015844 | 67 | 38 | 0.0 | 0.0 | 0.00 | 0.00 | 0.00 | 82 | 1010.8 |
| 20260905015824 | 67 | 38 | 0.0 | 1.0 | 0.00 | 0.00 | 0.00 | 82 | 1010.9 |
| 20260905014832 | 68 | 38 | 0.0 | 1.0 | 0.00 | 0.00 | 0.00 | 81 | 1010.8 |
| 20260905014326 | 68 | 38 | 0.0 | 1.0 | 0.00 | 0.00 | 0.00 | 81 | 1010.8 |
| 20260905013820 | 68 | 38 | 0.0 | 0.0 | 0.00 | 0.00 | 0.00 | 81 | 1010.8 |
| 20260905013315 | 68 | 38 | 0.0 | 0.0 | 0.00 | 0.00 | 0.00 | 80 | 1010.8 |
| 20260905012809 | 68 | 38 | 0.0 | 0.0 | 0.00 | 0.00 | 0.00 | 80 | 1010.8 |
| 20260905012305 | 68 | 38 | 0.0 | 0.0 | 0.00 | 0.00 | 0.00 | 80 | 1010.9 |
| 20260905011756 | 68 | 38 | 0.0 | 1.0 | 0.00 | 0.00 | 0.00 | 80 | 1010.9 |
| 20260905011251 | 68 | 38 | 0.0 | 1.0 | 0.00 | 0.00 | 0.00 | 80 | 1010.9 |
| 20260905010745 | 68 | 38 | 0.0 | 1.0 | 0.00 | 0.00 | 0.00 | 80 | 1010.9 |
| 20260905010238 | 68 | 38 | 0.0 | 1.0 | 0.00 | 0.00 | 0.00 | 80 | 1010.9 |
| 20260905005732 | 69 | 38 | 0.0 | 1.0 | 0.00 | 0.00 | 0.00 | 80 | 1010.8 |
| 20260905005449 | 69 | 48 | 0.0 | 0.0 | 0.00 | 0.00 | 0.00 | 80 | 1010.7 |
| 20260905004720 | 69 | 48 | 0.0 | 0.0 | 0.00 | 0.00 | 0.00 | 80 | 1010.8 |
| 20260905004438 | 69 | 48 | 0.0 | 0.0 | 0.00 | 0.00 | 0.00 | 80 | 1010.7 |
| 20260905003927 | 69 | 48 | 0.0 | 0.0 | 0.00 | 0.00 | 0.00 | 80 | 1010.7 |
| 20260905003203 | 69 | 48 | 0.0 | 0.0 | 0.00 | 0.00 | 0.00 | 79 | 1010.7 |
| 20260905003146 | 70 | 48 | 0.0 | 0.0 | 0.00 | 0.00 | 0.00 | 79 | 1010.7 |
| 20260905002156 | 70 | 48 | 0.0 | 1.0 | 0.00 | 0.00 | 0.00 | 79 | 1010.7 |
| 20260905001655 | 70 | 48 | 0.0 | 1.0 | 0.00 | 0.00 | 0.00 | 78 | 1010.6 |
| 20260905001153 | 70 | 48 | 1.0 | 3.0 | 0.00 | 0.00 | 0.00 | 78 | 1010.5 |
| 20260905000653 | 70 | 48 | 2.0 | 6.0 | 0.00 | 0.00 | 0.00 | 78 | 1010.5 |
| 20260905000153 | 70 | 32 | 3.0 | 6.0 | 0.00 | 0.00 | 0.00 | 78 | 1010.4 |
| 20260904235653 | 70 | 14 | 3.0 | 8.0 | 0.00 | 0.00 | 0.00 | 78 | 1010.4 |
| 20260904235152 | 70 | 20 | 3.0 | 8.0 | 0.00 | 0.00 | 0.00 | 78 | 1010.3 |
| 20260904234647 | 70 | 17 | 2.0 | 4.0 | 0.00 | 0.00 | 0.00 | 79 | 1010.2 |
| 20260904234141 | 70 | 29 | 2.0 | 4.0 | 0.00 | 0.00 | 0.00 | 79 | 1010.2 |
| 20260904234121 | 70 | 44 | 1.0 | 4.0 | 0.00 | 0.00 | 0.00 | 79 | 1010.0 |
| 20260904233129 | 70 | 55 | 0.0 | 1.0 | 0.00 | 0.00 | 0.00 | 79 | 1009.8 |
| 20260904232622 | 70 | 9 | 0.0 | 0.0 | 0.00 | 0.00 | 0.00 | 79 | 1009.9 |
| 20260904232116 | 71 | 9 | 0.0 | 0.0 | 0.00 | 0.00 | 0.00 | 79 | 1009.8 |
| 20260904231610 | 71 | 9 | 0.0 | 0.0 | 0.00 | 0.00 | 0.00 | 79 | 1009.8 |
| 20260904231105 | 71 | 9 | 0.0 | 0.0 | 0.00 | 0.00 | 0.00 | 78 | 1009.8 |
| 20260904230559 | 71 | 9 | 0.0 | 0.0 | 0.00 | 0.00 | 0.00 | 78 | 1009.7 |
| 20260904230052 | 71 | 9 | 0.0 | 0.0 | 0.00 | 0.00 | 0.00 | 78 | 1009.8 |
| 20260904225547 | 71 | 9 | 0.0 | 0.0 | 0.00 | 0.00 | 0.00 | 78 | 1009.8 |
| 20260904225259 | 71 | 9 | 0.0 | 0.0 | 0.00 | 0.00 | 0.00 | 78 | 1009.9 |
| 20260904224752 | 72 | 9 | 0.0 | 2.0 | 0.00 | 0.00 | 0.00 | 78 | 1009.8 |
| 20260904224029 | 72 | 9 | 0.0 | 2.0 | 0.00 | 0.00 | 0.00 | 78 | 1009.8 |
| 20260904223523 | 72 | 9 | 0.0 | 2.0 | 0.00 | 0.00 | 0.00 | 78 | 1009.9 |
| 20260904223017 | 73 | 9 | 0.0 | 0.0 | 0.00 | 0.00 | 0.00 | 77 | 1009.8 |
| 20260904222511 | 73 | 9 | 0.0 | 0.0 | 0.00 | 0.00 | 0.00 | 76 | 1009.8 |
| 20260904222225 | 74 | 9 | 0.0 | 1.0 | 0.00 | 0.00 | 0.00 | 76 | 1009.7 |
| 20260904221459 | 74 | 9 | 0.0 | 1.0 | 0.00 | 0.00 | 0.00 | 75 | 1009.7 |
| 20260904220952 | 74 | 9 | 0.0 | 1.0 | 0.00 | 0.00 | 0.00 | 75 | 1009.7 |
| 20260904220446 | 74 | 9 | 1.0 | 2.0 | 0.00 | 0.00 | 0.00 | 75 | 1009.7 |
| 20260904215940 | 74 | 9 | 1.0 | 3.0 | 0.00 | 0.00 | 0.00 | 74 | 1009.7 |
| 20260904215433 | 74 | 9 | 2.0 | 4.0 | 0.00 | 0.00 | 0.00 | 73 | 1009.7 |
| 20260904215130 | 75 | 20 | 2.0 | 4.0 | 0.00 | 0.00 | 0.00 | 73 | 1009.6 |
| 20260904215011 | 75 | 23 | 1.0 | 4.0 | 0.00 | 0.00 | 0.00 | 73 | 1009.5 |
| 20260904213915 | 75 | 27 | 2.0 | 5.0 | 0.00 | 0.00 | 0.00 | 72 | 1009.6 |
| 20260904213409 | 75 | 38 | 2.0 | 5.0 | 0.00 | 0.00 | 0.00 | 72 | 1009.6 |
| 20260904212903 | 76 | 36 | 1.0 | 4.0 | 0.00 | 0.00 | 0.00 | 73 | 1009.7 |
| 20260904212403 | 76 | 36 | 2.0 | 4.0 | 0.00 | 0.00 | 0.00 | 71 | 1009.6 |
| 20260904211903 | 76 | 45 | 2.0 | 4.0 | 0.00 | 0.00 | 0.00 | 71 | 1009.7 |
| 20260904211407 | 76 | 28 | 2.0 | 4.0 | 0.00 | 0.00 | 0.00 | 72 | 1009.7 |